Retour au catalogue

COSMOS 1023

ActifMilitaireLEO
NORAD 10961·PAYLOAD·🇷🇺 Russia

Lancé Jun 21, 1978 depuis Plesetsk Cosmodrome

Loading…

Prochains Passages (prochaines 24 heures)

TLE

FraisSource: Space-Track

Époque: Sep 14, 2026, 01:13 UTC

1 10961U 78063A   26257.05078305  .00000089  00000-0  38253-4 0  9993
2 10961  74.0741 285.1427 0015149  57.2056 303.0555 14.37626136525705

Suivez COSMOS 1023 en temps réel avec AllMySat

Download on the App Store